Reykjavik, Iceland

3:14 PM GMT on September 15, 2019 (GMT +0000)
Reykjavik

Weather History for BIRK - August, 2019

Change the Weather History Date:

Saturday, August 17, 2019

  Actual Average Record
Temperature  
Mean Temperature 50 °F -  
Max Temperature 58 °F 55 °F 64 °F (2010)
Min Temperature 43 °F 47 °F 41 °F (1998)
Degree Days  
Heating Degree Days 14    
Moisture  
Dew Point 38 °F    
Average Humidity 57    
Maximum Humidity 66    
Minimum Humidity 38    
Precipitation  
Precipitation 0.00 in - - ()
Sea Level Pressure  
Sea Level Pressure 29.47 in    
Wind  
Wind Speed 14 mph ()    
Max Wind Speed 25 mph    
Max Gust Speed 36 mph    
Visibility 6.2 miles    
Events      
Averages and records for this station are not official NWS values.
T = Trace of Precipitation, MM = Missing Value Source: Averaged Metar Reports

Daily Weather History Graph

Daily Weather History Graph

Search for Another Location

Airport or City:

Astronomy

Aug. 17, 2019 Rise Set
Actual Time 5:23 AM GMT 9:37 PM GMT
Civil Twilight 4:20 AM GMT 10:40 PM GMT
Nautical Twilight 2:08 AM GMT 12:40 AM GMT
Astronomical Twilight Sun does not set Sun does not set
Moon 10:25 PM GMT (8/17) 7:22 AM GMT (8/17)
Length of Visible Light 18h 19m
Length of Day
16h 13m
Waning Gibbous, 96% of the Moon is Illuminated
Aug 17
Waning Gibbous
Aug 23
Last Quarter
Aug 30
New
Sep 6
First Quarter
Sep 14
Full

Hourly Weather History & Observations

Time (GMT) Temp. Dew Point Humidity Pressure Visibility Wind Dir Wind Speed Gust Speed Precip Events Conditions
12:00 AM 48 °F 38 °F 60% 29.42 in 31 mi NNE 11.5 mph - -   Scattered Clouds
12:00 AM 48.2 °F 37.4 °F 66% 29.39 in 6.2 mi North 24.2 mph 35.7 mph N/A   Partly Cloudy
1:00 AM 48.2 °F 37.4 °F 66% 29.42 in - North 24.2 mph - N/A   Clear
2:00 AM 48.2 °F 37.4 °F 66% 29.39 in - NNE 25.3 mph - N/A   Clear
3:00 AM 47 °F 38 °F 60% 29.42 in 31 mi NNE 2.3 mph - -   Scattered Clouds
3:00 AM 48.2 °F 35.6 °F 62% 29.42 in - North 18.4 mph - N/A   Clear
4:00 AM 48.2 °F 37.4 °F 66% 29.42 in - North 19.6 mph - N/A   Clear
5:00 AM 48.2 °F 35.6 °F 62% 29.42 in - North 9.2 mph - N/A   Clear
6:00 AM 44 °F 36 °F 65% 29.43 in 31 mi SSE 3.5 mph - -   Scattered Clouds
6:00 AM 48.2 °F 35.6 °F 62% 29.42 in - North 16.1 mph - N/A   Clear
7:00 AM 48.2 °F 37.4 °F 66% 29.42 in 6.2 mi Variable 9.2 mph - N/A   Partly Cloudy
8:00 AM 50.0 °F 37.4 °F 62% 29.44 in 6.2 mi NNE 10.4 mph - N/A   Partly Cloudy
9:00 AM 55 °F 39 °F 43% 29.47 in 44 mi South 2.3 mph - -   Scattered Clouds
9:00 AM 51.8 °F 37.4 °F 58% 29.44 in 6.2 mi North 17.3 mph - N/A   Partly Cloudy
10:00 AM 53.6 °F 37.4 °F 54% 29.44 in - NNE 17.3 mph - N/A   Clear
11:00 AM 53.6 °F 37.4 °F 54% 29.47 in 6.2 mi NNE 16.1 mph - N/A   Partly Cloudy
12:00 PM 57 °F 38 °F 38% 29.49 in 47 mi North 5.8 mph - -   Scattered Clouds
12:00 PM 57.2 °F 37.4 °F 48% 29.47 in 6.2 mi NNE 15.0 mph - N/A   Partly Cloudy
1:00 PM 55.4 °F 39.2 °F 54% 29.47 in 6.2 mi North 23.0 mph - N/A   Partly Cloudy
2:00 PM 53.6 °F 39.2 °F 58% 29.50 in 6.2 mi NNE 23.0 mph - N/A   Partly Cloudy
3:00 PM 55.4 °F 37.4 °F 51% 29.50 in 6.2 mi NNE 24.2 mph - N/A   Partly Cloudy
4:00 PM 55.4 °F 39.2 °F 54% 29.50 in 6.2 mi NNE 23.0 mph - N/A   Partly Cloudy
5:00 PM 55.4 °F 37.4 °F 51% 29.50 in 6.2 mi NNE 20.7 mph - N/A   Partly Cloudy
6:00 PM 55 °F 40 °F 46% 29.53 in 44 mi NNE 11.5 mph - -   Scattered Clouds
6:00 PM 55.4 °F 39.2 °F 54% 29.50 in 6.2 mi NNE 19.6 mph - N/A   Partly Cloudy
7:00 PM 53.6 °F 39.2 °F 58% 29.53 in - NNE 19.6 mph - N/A   Clear
8:00 PM 51.8 °F 39.2 °F 62% 29.53 in - NNE 19.6 mph - N/A   Clear
9:00 PM 51 °F 39 °F 53% 29.55 in 31 mi NNE 8.1 mph - -   Scattered Clouds
9:00 PM 51.8 °F 37.4 °F 58% 29.53 in - North 18.4 mph - N/A   Clear
10:00 PM 50.0 °F 37.4 °F 62% 29.53 in - NNE 23.0 mph - N/A   Clear
11:00 PM 48.2 °F 35.6 °F 62% 29.56 in 6.2 mi NNE 19.6 mph - N/A   Partly Cloudy